Location: Manchester NH
(43.0000°N, 71.5000°W)
Time: 06:46:35
(UTC-04:00)

Envisat - Pass Details

Date: 28 April 2019
Orbit: 764 x 766 km, 98.2° (Epoch: 23 May)

Event Time Altitude Azimuth Distance (km) Brightness Sun altitude
Rises 20:04:21 0° 193° (SSW) 3,219 6.1 -4.4°
Reaches altitude 10° 20:06:54 10° 204° (SSW) 2,297 5.5 -4.8°
Maximum altitude 20:11:19 30° 265° (W) 1,356 5.1 -5.5°
Drops below altitude 10° 20:15:46 10° 326° (NW) 2,311 6.6 -6.3°
Sets 20:18:21 0° 337° (NNW) 3,242 7.1 -6.7°
